Volver al catálogo

COSMOS 985 DEB

ActivoPO
NORAD 23836·DEBRIS·🇷🇺 Russia

Lanzado Jan 17, 1978 desde Plesetsk Cosmodrome

Loading…

Próximos Pases (próximas 24 horas)

TLE

ActualizadoSource: Space-Track

Época: Sep 14, 2026, 09:18 UTC

1 23836U 78007D   26257.38780813  .00000934  00000-0  56998-3 0  9990
2 23836  82.9300  46.8668 0038456  24.6169   4.1620 14.04701084653756

Sigue COSMOS 985 DEB en tiempo real con AllMySat

Download on the App Store